Location: Kavul?ru
(16.6288°N, 80.5832°E)
Time: 12:33:46
(UTC+00:00)

Meteor 2-1 Rocket - Pass Details

Date: 15 May 2026
Orbit: 825 x 909 km, 81.3° (Epoch: 8 June)

Event Time Altitude Azimuth Distance (km) Brightness Sun altitude
Rises 13:29:13 0° 175° (S) 3,474 7.1 -7.1°
Reaches altitude 10° 13:31:44 10° 171° (S) 2,524 6.4 -7.6°
Maximum altitude 13:37:20 56° 94° (E) 1,015 4.3 -8.9°
Drops below altitude 10° 13:42:48 10° 17° (NNE) 2,472 6.7 -10.1°
Sets 13:45:14 0° 13° (NNE) 3,397 7.5 -10.6°
